CW2927 Weather Reports


time (UTC)temp
C
wind
direction
speed
KPH
gust
KPH
rain 1hr
cm
rain 24hr
cm
rain mn
cm
humidity
%
barometer
mb
20260831104704 7 49 0.0 1.6 0.00 0.79 0.00 95 1020.0
20260831104204 7 49 0.0 3.2 0.00 0.79 0.00 95 1019.9
20260831102704 7 49 1.6 3.2 0.00 0.79 0.00 95 1019.7
20260831102204 7 49 1.6 3.2 0.00 0.79 0.00 95 1019.6
20260831100704 7 49 1.6 3.2 0.00 0.79 0.00 95 1019.6
20260831100204 7 49 1.6 4.8 0.00 0.79 0.00 95 1019.5
20260831094704 7 46 0.0 1.6 0.00 0.79 0.00 95 1019.3
20260831094204 8 46 1.6 3.2 0.00 0.79 0.00 95 1019.3
20260831092704 8 46 0.0 1.6 0.00 0.79 0.00 95 1019.2
20260831092204 8 46 0.0 1.6 0.00 0.79 0.00 95 1019.3
20260831090704 8 46 0.0 0.0 0.00 0.79 0.00 95 1019.1
20260831090204 8 46 0.0 1.6 0.00 0.79 0.00 95 1019.0
20260831084704 8 46 0.0 0.0 0.00 0.79 0.00 95 1018.9
20260831082704 8 46 0.0 1.6 0.00 0.79 0.00 95 1018.9
20260831082204 8 46 0.0 3.2 0.00 0.79 0.00 95 1018.9
20260831080703 8 46 0.0 0.0 0.00 0.79 0.00 95 1018.8
20260831080203 8 46 0.0 0.0 0.00 0.79 0.00 95 1018.8
20260831072705 9 46 0.0 1.6 0.00 0.79 0.00 95 1018.8
20260831064705 10 46 0.0 0.0 0.00 0.79 0.00 95 1018.7
20260831064205 10 46 0.0 0.0 0.00 0.79 0.00 95 1018.7
20260831062705 10 46 0.0 0.0 0.00 0.79 0.00 95 1018.7
20260831062205 10 46 0.0 0.0 0.00 0.79 0.00 95 1018.7
20260831060705 10 46 0.0 0.0 0.00 0.79 0.00 95 1018.7
20260831060205 10 46 0.0 0.0 0.00 0.79 0.00 95 1018.8
20260831054205 11 46 0.0 3.2 0.00 0.79 0.00 95 1018.8
20260831052705 11 46 0.0 0.0 0.00 0.79 0.00 95 1018.5
20260831052205 11 46 0.0 1.6 0.00 0.79 0.00 95 1018.6
20260831050705 11 46 0.0 1.6 0.00 0.79 0.00 95 1018.6
20260831050205 11 46 1.6 3.2 0.00 0.81 0.00 95 1018.6
20260831044706 11 46 0.0 0.0 0.00 0.91 0.00 95 1018.5
20260831042705 11 46 0.0 0.0 0.00 1.02 0.00 95 1018.6
20260831042205 11 46 0.0 1.6 0.00 1.04 0.00 95 1018.5
20260831040705 11 46 0.0 0.0 0.00 1.04 0.00 95 1018.4
20260831040205 12 46 0.0 3.2 0.00 1.04 0.00 95 1018.4
20260831034705 12 46 0.0 0.0 0.00 1.04 1.04 94 1018.4
20260831034205 12 46 0.0 0.0 0.00 1.04 1.04 95 1018.3
20260831032705 12 46 0.0 0.0 0.00 1.04 1.04 94 1018.1
20260831032204 12 46 0.0 1.6 0.00 1.04 1.04 94 1018.1
20260831030705 12 46 0.0 0.0 0.00 1.04 1.04 94 1017.7
20260831030205 12 46 0.0 0.0 0.00 1.04 1.04 94 1017.6
20260831024704 12 46 0.0 0.0 0.00 1.04 1.04 94 1017.6
20260831024205 12 46 0.0 0.0 0.00 1.04 1.04 94 1017.6
20260831022705 13 46 0.0 0.0 0.00 1.04 1.04 94 1017.4
20260831022205 13 46 0.0 3.2 0.00 1.04 1.04 94 1017.2
20260831020705 13 46 1.6 4.8 0.00 1.04 1.04 94 1017.0
20260831020205 13 41 0.0 1.6 0.00 1.04 1.04 94 1017.1
20260831014705 13 40 1.6 1.6 0.00 1.04 1.04 93 1017.2
20260831014205 13 40 0.0 3.2 0.00 1.04 1.04 93 1017.2
20260831012705 13 40 0.0 1.6 0.00 1.04 1.04 93 1017.0
20260831012205 13 40 0.0 1.6 0.00 1.04 1.04 93 1016.9
20260831010705 14 40 0.0 0.0 0.00 1.04 1.04 92 1016.8
20260831010205 14 40 0.0 0.0 0.00 1.04 1.04 92 1016.5
20260831004704 14 40 0.0 0.0 0.00 1.04 1.04 91 1016.4
20260831004206 15 40 0.0 1.6 0.00 1.04 1.04 91 1016.3
20260831002705 15 40 0.0 1.6 0.00 1.04 1.04 91 1015.9
20260831002205 15 40 0.0 3.2 0.00 1.04 1.04 92 1015.9
20260831000705 15 40 0.0 1.6 0.00 1.04 1.04 92 1015.5
20260831000205 15 40 0.0 1.6 0.00 1.04 1.04 92 1015.4
20260830234704 15 40 0.0 0.0 0.00 1.04 1.04 91 1015.1
20260830234204 15 40 0.0 3.2 0.00 1.04 1.04 91 1014.9
20260830232705 16 40 0.0 1.6 0.00 1.04 1.04 90 1014.7
20260830232205 16 40 0.0 1.6 0.00 1.04 1.04 90 1014.6
20260830224705 17 40 0.0 1.6 0.05 1.04 1.04 84 1014.4
20260830224205 17 40 0.0 3.2 0.43 1.04 1.04 84 1014.5
20260830222705 17 40 0.0 1.6 0.43 1.04 1.04 88 1014.5
20260830222204 16 41 1.6 4.8 0.43 1.04 1.04 90 1014.4
20260830220705 16 5 0.0 1.6 0.43 1.04 1.04 90 1014.5
20260830220204 16 5 1.6 4.8 0.43 1.04 1.04 89 1014.1
20260830214704 18 358 4.8 12.9 0.41 0.99 0.99 81 1014.2
20260830214204 21 331 4.8 11.3 0.00 0.61 0.61 82 1013.8
20260830212205 21 271 3.2 8.0 0.00 0.61 0.61 83 1013.0
20260830210705 21 268 3.2 4.8 0.00 0.61 0.61 83 1013.1
20260830210204 21 260 3.2 8.0 0.00 0.61 0.61 84 1013.0
20260830204205 20 266 3.2 4.8 0.00 0.61 0.61 88 1012.9
20260830202705 18 266 3.2 4.8 0.00 0.61 0.61 90 1012.8
20260830200705 17 266 1.6 3.2 0.03 0.61 0.61 90 1013.0
20260830200205 17 266 3.2 4.8 0.03 0.61 0.61 90 1012.9
20260830194704 17 266 1.6 4.8 0.33 0.61 0.61 91 1013.0
20260830194204 17 267 4.8 8.0 0.33 0.61 0.61 91 1012.9
20260830192704 17 269 3.2 4.8 0.33 0.61 0.61 91 1012.9
20260830192204 17 273 3.2 4.8 0.33 0.61 0.61 91 1012.8
20260830190705 17 277 3.2 4.8 0.33 0.58 0.58 89 1012.9
20260830190205 17 267 4.8 45.1 0.33 0.58 0.58 87 1013.1
20260830184704 21 286 6.4 20.9 0.00 0.25 0.25 78 1012.7
20260830184205 21 272 8.0 22.5 0.00 0.25 0.25 78 1012.5
20260830182704 21 274 1.6 4.8 0.00 0.25 0.25 80 1012.7
20260830182204 21 286 4.8 11.3 0.00 0.25 0.25 81 1012.9
20260830180704 22 287 4.8 9.7 0.00 0.25 0.25 78 1013.1
20260830174204 21 277 4.8 14.5 0.00 0.25 0.25 79 1013.3
20260830172704 22 273 3.2 11.3 0.00 0.25 0.25 80 1013.5
20260830172204 22 272 6.4 16.1 0.00 0.25 0.25 78 1013.5
20260830170205 21 292 6.4 12.9 0.00 0.25 0.25 79 1014.0
20260830164704 21 276 4.8 9.7 0.00 0.25 0.25 78 1014.1
20260830164204 22 269 4.8 11.3 0.00 0.25 0.25 78 1014.1
20260830162204 22 273 8.0 12.9 0.00 0.25 0.25 77 1014.4
20260830160704 21 264 3.2 8.0 0.00 0.25 0.25 79 1014.6
20260830160204 21 276 6.4 11.3 0.00 0.25 0.25 79 1014.8
20260830154204 21 264 6.4 12.9 0.00 0.25 0.25 79 1015.0
20260830152704 21 266 4.8 11.3 0.00 0.25 0.25 80 1015.0
20260830152204 21 266 3.2 11.3 0.00 0.25 0.25 79 1015.0
20260830150704 21 238 3.2 11.3 0.00 0.25 0.25 81 1015.0
20260830150204 20 305 3.2 9.7 0.00 0.25 0.25 81 1015.0
20260830144204 19 277 4.8 12.9 0.00 0.25 0.25 83 1015.2
20260830142704 18 279 6.4 12.9 0.00 0.25 0.25 84 1015.3
20260830140704 18 283 4.8 9.7 0.00 0.25 0.25 83 1015.4
20260830140204 18 247 4.8 14.5 0.00 0.25 0.25 84 1015.4
20260830134704 18 273 4.8 12.9 0.00 0.25 0.25 85 1015.4
20260830134204 18 276 3.2 8.0 0.00 0.25 0.25 85 1015.3
20260830132704 18 278 1.6 8.0 0.00 0.25 0.25 86 1015.3
20260830132204 18 268 3.2 8.0 0.00 0.25 0.25 86 1015.4
20260830130704 17 180 3.2 4.8 0.00 0.25 0.25 89 1015.5
20260830122704 16 267 3.2 4.8 0.00 0.25 0.25 91 1015.5
20260830122204 16 243 4.8 9.7 0.00 0.25 0.25 91 1015.5
20260830120204 15 161 3.2 8.0 0.00 0.25 0.25 93 1015.6
20260830114704 15 167 3.2 8.0 0.00 0.25 0.25 93 1015.6
20260830112204 14 172 0.0 4.8 0.00 0.25 0.25 94 1015.5
20260830110704 13 172 1.6 4.8 0.00 0.25 0.25 94 1015.6